Location: Songkhla
(7.2000°N, 100.6000°E)
Time: 19:24:43
(UTC+07:00)

ISS - Pass Details

Date: 17 April 2026
Orbit: 414 x 424 km, 51.6° (Epoch: 19 May)

Event Time Altitude Azimuth Distance (km) Brightness Sun altitude
Rises 14:47:27 0° 307° (NW) 2,367 0.6 52.8°
Reaches altitude 10° 14:49:46 10° 293° (WNW) 1,503 -0.1 52.2°
Maximum altitude 14:52:38 26° 235° (SW) 877 -1.2 51.5°
Drops below altitude 10° 14:55:30 10° 177° (S) 1,501 -0.9 50.8°
Sets 14:57:49 0° 163° (SSE) 2,364 -0.1 50.2°
